Location: Neuvy Saint Sepulchre
(46.5953°N, 1.8122°E)
Time: 07:52:08
(UTC+02:00)

ISS - Pass Details

Date: 14 July 2021
Orbit: 419 x 421 km, 51.6° (Epoch: 03 August)

Event Time Altitude Azimuth Distance (km) Brightness Sun altitude
Rises 00:27:11 0° 250° (WSW) 2,364 0.1 -18.7°
Reaches altitude 10° 00:29:17 10° 253° (WSW) 1,501 -0.9 -18.8°
Maximum altitude 00:32:39 68° 337° (NNW) 457 -3.5 -19.0°
Drops below altitude 10° 00:36:01 10° 61° (ENE) 1,506 -0.9 -19.2°
Sets 00:38:08 0° 64° (ENE) 2,372 0.1 -19.3°
